Temperature
1 2 2 2 2 2 1 1 2 2 3 4 4 3 3 4 4 4 4 4 4 4 4 4 4 4 4 5 5 5 5 5 5 5 5 5 5 6 6 6 6 6 6 7
1 2 1 2 2 2 2 2 2 2 3 4 4 3 3 3 3 3 4 4 4 3 3 3 3 4 4 4 5 5 5 4 5 5 5 5 5 5 6 6 6 6 6 6
1 1 1 2 2 2 2 1 1 2 3 3 3 2 3 3 3 3 4 4 3 3 3 3 3 3 3 4 4 4 4 4 4 4 5 5 5 5 5 5 5 5 6 6
1 0 2 4 3 3 2 2 2 2 2 2 2 3 4 4 4 4 4 3 3 3 3 3 3 3 3 4 4 4 4 4 4 4 4 5 5 5 5 5 5 5 5 5
0 0 1 2 3 2 2 2 2 2 2 2 3 2 3 5 4 4 3 3 3 3 3 3 3 3 3 3 3 3 3 3 4 4 4 4 4 4 4 4 4 4 4 5
1 1 2 4 3 3 2 2 2 2 2 2 2 1 2 4 4 4 3 3 3 2 2 3 2 3 3 3 3 3 3 3 3 3 3 3 3 4 4 4 4 4 4 5
1 1 2 2 2 3 2 3 4 3 3 3 1 2 4 4 3 3 3 3 2 2 2 2 2 2 2 2 2 2 2 2 2 2 2 3 3 3 4 4 4 4 4 4
0 1 2 3 2 2 3 4 4 4 4 3 3 3 3 3 3 3 3 2 2 2 2 2 2 2 2 2 2 2 2 2 2 2 2 2 3 3 3 3 4 4 4 4
1 3 3 3 3 4 4 4 4 4 4 3 3 3 3 3 2 2 2 2 2 2 2 2 2 1 1 1 1 1 1 1 2 2 2 2 2 3 3 3 3 3 3 4
-1 0 1 3 4 4 4 4 4 4 3 3 2 2 2 2 2 2 2 2 1 1 1 1 1 1 1 1 1 1 1 1 1 1 2 2 2 2 2 2 3 3 3 3
-1 0 1 3 4 4 4 4 4 3 3 2 2 2 2 2 2 1 1 1 1 1 1 1 1 1 1 1 1 1 1 1 1 1 1 1 2 2 2 2 2 2 2 3
1 2 1 2 4 4 4 3 3 3 2 2 2 2 1 1 1 1 1 1 1 1 0 0 0 0 0 0 0 0 0 1 1 1 1 1 1 2 2 2 2 2 3 2
3 4 3 3 3 3 3 2 2 2 2 1 1 1 1 1 1 0 0 -0 -0 0 -0 -0 -0 0 0 -0 -0 -0 -0 0 0 0 1 1 1 1 1 2 2 2 2 2
3 3 2 2 2 2 2 2 1 1 1 1 1 0 0 0 -0 -0 -0 -0 -0 -0 -1 -1 -1 -0 -0 -0 -0 -0 -0 -0 -0 -0 0 0 0 1 1 1 1 2 2 2
2 2 2 2 2 2 1 1 1 1 1 0 0 -0 -0 -1 -1 -1 -1 -1 -1 -1 -1 -1 -1 -1 -1 -1 -1 -1 -1 -1 -0 -0 -0 -0 0 0 0 1 1 1 1 2
2 1 1 1 1 1 1 0 -0 -0 -0 -0 -1 -1 -1 -1 -1 -1 -1 -1 -1 -1 -1 -1 -2 -1 -1 -1 -1 -1 -1 -1 -1 -1 -1 -1 -0 -0 -0 0 0 1 1 1
0 0 0 0 0 0 -0 -0 -1 -1 -1 -1 -1 -1 -2 -2 -2 -2 -2 -2 -2 -2 -2 -2 -2 -2 -2 -2 -2 -2 -2 -2 -1 -1 -1 -1 -1 -1 -1 -0 -0 -0 0 0
0 0 0 -0 -0 -1 -1 -1 -1 -1 -2 -2 -2 -2 -2 -2 -2 -2 -2 -2 -2 -2 -2 -2 -3 -2 -2 -2 -2 -2 -2 -2 -2 -2 -2 -2 -1 -1 -1 -1 -1 -0 -0 -0
-0 -0 -0 -1 -1 -1 -1 -2 -2 -2 -2 -2 -3 -3 -3 -3 -3 -3 -3 -3 -3 -3 -3 -3 -3 -3 -3 -3 -3 -3 -3 -3 -3 -2 -2 -2 -2 -2 -1 -1 -1 -1 -1 -1
-1 -1 -1 -1 -1 -2 -2 -2 -2 -3 -3 -3 -3 -3 -3 -3 -4 -4 -3 -3 -3 -4 -4 -4 -4 -4 -4 -4 -4 -4 -3 -3 -3 -3 -3 -3 -3 -2 -2 -2 -2 -2 -1 -1
-1 -1 -2 -2 -2 -2 -3 -3 -3 -3 -4 -4 -4 -4 -4 -4 -4 -4 -4 -4 -4 -4 -4 -4 -4 -4 -4 -4 -4 -4 -4 -4 -4 -4 -4 -3 -3 -3 -2 -2 -2 -2 -2 -2
-2 -2 -2 -3 -3 -3 -3 -4 -4 -4 -4 -5 -5 -5 -5 -5 -5 -5 -5 -5 -5 -5 -5 -5 -5 -5 -5 -5 -5 -5 -4 -4 -4 -4 -4 -4 -3 -3 -3 -3 -3 -2 -2 -2
-3 -3 -3 -4 -4 -4 -4 -5 -5 -5 -5 -5 -5 -6 -6 -6 -6 -6 -6 -5 -6 -5 -6 -5 -5 -5 -5 -5 -5 -5 -5 -5 -4 -4 -4 -4 -4 -3 -3 -3 -3 -3 -2 -2
-4 -4 -5 -5 -5 -5 -5 -5 -6 -6 -6 -6 -6 -6 -6 -6 -6 -6 -7 -6 -6 -6 -6 -6 -6 -6 -6 -5 -5 -5 -5 -5 -5 -5 -4 -4 -4 -4 -3 -3 -3 -3 -3 -2
-5 -5 -5 -6 -6 -6 -6 -6 -6 -6 -6 -6 -6 -7 -7 -7 -7 -7 -7 -7 -6 -6 -6 -6 -6 -6 -6 -6 -6 -5 -5 -5 -5 -5 -5 -4 -4 -4 -4 -3 -3 -3 -3 -3
-6 -6 -6 -6 -7 -7 -7 -7 -7 -7 -7 -7 -7 -7 -7 -7 -7 -7 -7 -7 -7 -7 -7 -7 -6 -6 -6 -6 -6 -6 -6 -5 -5 -5 -5 -4 -4 -4 -4 -4 -3 -3 -3 -3
-6 -7 -7 -7 -7 -8 -8 -8 -8 -8 -8 -8 -8 -8 -8 -8 -8 -8 -7 -7 -7 -7 -7 -7 -7 -7 -6 -6 -6 -6 -5 -5 -5 -4 -4 -4 -4 -4 -4 -4 -3 -3 -3 -3
Wind_Speed
11 10 7 9 11 10 11 11 11 14 16 21 16 14 13 11 12 12 12 12 12 11 11 11 11 11 9 7 6 5 3 3 3 3 3 3 3 3 3 3 4 3 4 4
7 8 9 14 17 16 15 14 16 19 21 18 14 10 9 10 10 11 12 12 12 11 11 11 11 11 10 8 7 5 4 4 4 3 3 3 3 3 2 2 2 2 3 4
6 5 5 10 11 12 8 9 9 14 14 11 10 10 9 9 9 10 11 11 11 11 10 10 10 10 9 8 6 5 4 4 4 3 3 3 3 3 2 2 2 3 3 4
4 3 7 7 3 7 8 10 12 11 11 10 10 10 9 8 8 10 11 10 10 9 10 10 9 8 8 7 5 4 4 4 5 4 4 4 3 3 3 3 2 3 4 4
2 4 10 9 5 6 6 8 8 10 11 9 8 6 7 7 6 9 9 9 8 8 8 8 8 8 8 7 5 5 5 5 5 5 5 5 4 4 3 3 3 3 3 2
4 4 7 7 3 3 2 6 6 6 8 7 3 5 8 8 8 9 8 7 7 7 7 7 8 7 7 7 5 5 5 5 5 4 4 4 4 4 4 3 4 3 3 2
10 8 10 8 4 5 3 7 4 6 7 6 6 8 9 9 9 9 8 8 7 6 6 7 7 6 7 6 6 6 5 5 4 4 4 4 4 4 3 3 3 2 2 2
7 8 11 6 7 8 9 4 4 6 7 7 9 10 10 10 10 9 9 8 7 6 7 7 5 5 6 6 6 6 5 5 5 4 4 4 4 4 3 3 2 2 2 2
11 11 5 6 8 7 4 5 6 6 8 8 9 9 10 9 10 9 8 8 7 7 8 7 5 4 6 7 6 5 5 5 5 5 4 4 3 4 3 2 1 1 1 2
7 10 9 8 8 8 7 8 8 8 8 7 9 10 10 9 9 8 8 8 7 7 7 7 7 6 6 6 5 5 5 5 5 4 5 5 3 3 2 2 2 2 1 2
8 8 8 8 9 10 9 8 8 8 8 8 9 10 9 9 9 8 8 7 6 6 7 8 8 7 7 5 4 5 5 5 5 4 4 4 3 3 3 3 3 3 2 2
10 9 8 8 7 7 8 9 9 9 9 8 7 9 8 8 8 7 7 7 7 7 7 8 8 8 7 5 4 5 5 5 4 3 3 3 3 4 5 4 6 6 5 4
10 7 8 9 7 6 7 8 8 8 8 8 7 7 7 8 7 7 7 7 8 8 8 7 7 8 7 6 5 5 5 5 4 4 3 3 3 3 4 6 5 5 4 3
9 7 7 8 7 7 7 7 6 6 6 6 6 6 6 7 7 7 8 8 8 7 7 7 7 7 7 6 5 5 5 6 5 4 4 3 3 3 3 3 4 4 3 2
9 9 9 6 6 6 5 4 5 6 6 6 5 6 6 7 8 9 8 7 7 7 7 6 7 8 6 5 5 5 5 4 4 4 4 4 3 3 3 3 3 3 3 2
5 5 6 6 7 7 5 5 6 7 7 7 6 7 7 7 8 8 7 6 6 7 8 7 7 7 6 5 5 5 5 7 7 4 3 3 3 3 3 3 3 3 3 2
5 5 5 6 7 6 6 6 6 6 6 6 7 7 7 7 7 7 7 7 6 7 7 7 7 7 6 5 5 5 4 6 8 5 3 4 3 3 3 3 3 3 3 3
6 6 6 6 6 5 5 5 5 5 6 6 6 6 6 7 8 9 8 8 7 7 7 6 6 6 5 5 5 4 4 4 4 4 4 3 3 3 3 3 3 3 3 3
3 3 3 3 4 4 4 4 4 5 5 5 6 6 7 7 7 8 7 7 7 9 8 5 9 7 6 7 7 4 4 4 4 4 4 5 4 3 3 3 3 3 3 3
0 0 1 1 1 2 3 3 4 5 5 5 5 6 7 7 7 7 7 7 6 7 7 8 7 5 5 6 7 4 4 4 4 4 4 4 3 3 3 4 4 3 3 3
0 0 0 1 2 2 2 3 3 4 5 5 5 6 8 8 7 7 7 8 8 7 7 10 6 5 5 6 7 4 4 5 5 4 5 4 4 4 3 4 4 4 3 3
0 0 1 1 1 3 3 3 3 4 5 6 6 6 7 8 8 7 7 7 8 11 8 5 5 7 8 9 5 5 5 5 5 4 4 4 4 4 4 4 4 4 4 3
0 0 1 2 2 3 4 4 4 5 5 6 7 7 7 8 7 7 8 7 7 11 8 6 8 12 13 7 5 5 5 5 5 5 5 4 4 4 4 5 4 4 4 3
0 1 1 2 2 3 4 5 5 5 5 6 7 7 7 7 7 6 7 11 13 13 8 9 13 13 12 6 4 5 5 5 5 5 5 4 4 4 4 4 4 4 4 4
0 1 1 2 3 3 4 5 6 6 6 5 6 7 6 5 7 8 8 9 12 12 8 10 13 13 8 5 5 5 5 5 5 5 5 4 4 5 5 5 4 4 3 4
1 1 2 2 3 3 4 4 5 5 6 7 7 6 6 6 7 7 7 8 9 11 8 7 7 8 6 5 5 6 5 6 6 5 5 5 5 5 5 4 4 4 4 4
1 1 2 3 3 3 3 4 5 6 6 7 8 8 7 7 7 7 8 7 7 7 7 6 6 6 6 6 6 5 5 5 5 5 5 5 5 5 4 5 4 4 4 4
Wind_Direction
253 262 260 254 255 235 222 225 239 260 267 279 289 296 301 304 309 315 318 320 321 323 324 326 329 330 325 321 322 328 333 317 303 303 290 271 270 262 246 242 241 233 232 238
267 255 259 265 259 246 240 240 244 262 274 273 283 293 295 299 305 311 313 316 317 320 322 325 327 328 330 329 332 343 349 333 318 317 308 295 292 287 266 260 260 253 245 244
277 297 298 268 245 225 220 217 216 242 257 282 296 294 292 292 294 298 304 311 315 317 316 318 321 323 327 325 331 343 344 337 333 327 318 309 304 314 309 288 283 280 270 257
286 346 259 250 199 199 222 244 230 242 262 277 276 286 284 273 274 289 300 306 309 312 313 314 318 321 324 327 333 339 340 338 337 335 326 329 330 328 318 307 292 279 272 266
227 263 276 284 242 193 209 265 234 236 260 276 290 310 295 272 267 280 289 294 298 301 304 309 314 317 323 325 328 335 336 333 329 335 334 332 329 321 317 309 297 287 278 274
207 236 254 256 203 164 121 282 245 218 251 273 302 311 294 296 295 293 293 295 299 305 309 312 314 320 324 322 325 325 322 321 324 329 326 319 311 307 308 303 297 296 302 299
223 239 262 251 191 129 177 251 243 216 238 247 237 248 274 295 297 291 292 295 301 306 308 306 313 324 322 321 315 306 308 314 319 316 312 305 311 307 305 307 305 307 318 316
199 224 251 201 151 186 222 236 226 238 243 248 257 269 279 285 289 292 296 299 303 305 302 304 309 317 317 312 307 309 311 312 311 311 311 315 312 310 305 308 313 323 343 347
201 220 241 179 202 221 221 239 245 245 256 260 267 273 279 283 287 289 289 294 300 298 301 307 312 314 309 306 310 313 306 303 304 308 305 300 297 306 315 317 319 316 336 330
243 257 256 250 253 257 247 246 256 257 263 263 265 274 281 286 290 292 292 294 298 302 305 306 308 307 299 302 308 310 302 299 299 303 305 303 299 295 296 306 304 307 301 302
244 264 283 265 244 249 257 260 265 268 264 260 265 275 276 282 285 288 290 292 293 292 293 294 302 304 304 304 309 307 298 298 301 299 302 314 320 307 291 275 268 275 269 269
234 225 220 249 245 243 251 262 265 271 277 273 262 268 276 279 281 284 287 292 294 292 291 295 300 302 302 303 299 298 301 301 300 300 304 308 318 327 324 302 309 305 286 273
233 234 233 254 260 248 251 261 263 261 262 271 275 270 275 281 283 285 287 289 288 288 289 293 297 299 301 304 300 294 295 294 293 290 289 293 300 307 322 337 335 318 302 288
234 238 254 254 257 261 257 261 266 268 266 268 275 280 280 281 285 285 284 284 286 288 292 294 296 297 301 304 300 296 294 293 289 279 277 276 278 278 278 294 313 323 325 307
232 223 233 253 266 272 269 268 274 279 283 286 283 282 283 283 283 284 286 290 295 295 295 297 296 297 305 306 302 295 291 288 282 275 274 270 271 272 272 275 282 291 307 317
223 225 233 247 258 268 273 268 267 275 280 283 286 286 283 281 283 288 293 295 296 295 296 296 293 297 304 304 302 299 294 292 293 280 270 272 275 271 273 276 283 280 277 276
209 232 234 248 255 261 259 256 258 270 278 281 284 288 293 296 297 297 296 293 287 286 287 287 290 297 300 299 296 294 293 296 296 290 271 265 263 260 261 261 268 270 270 269
212 222 226 233 243 254 264 266 267 274 277 281 290 294 293 292 292 294 298 303 304 303 296 287 290 298 298 297 294 289 286 286 286 281 278 270 263 255 255 258 265 262 268 279
210 219 230 234 236 241 257 272 281 284 286 291 293 290 288 288 291 295 301 304 303 302 302 298 303 305 300 300 301 293 291 289 288 286 283 279 279 267 261 262 269 264 260 260
180 199 228 258 266 260 272 285 293 296 297 296 296 299 301 301 302 303 303 295 287 284 292 299 301 296 296 298 300 293 289 286 282 280 281 272 264 264 262 264 265 261 254 251
93 46 357 327 324 319 301 295 296 300 305 303 297 295 297 301 304 304 302 300 301 299 298 301 304 297 297 296 296 292 286 283 280 276 273 267 263 264 264 262 264 262 251 247
311 324 312 306 309 317 319 315 305 303 307 307 303 301 303 306 308 304 290 285 297 306 308 298 295 295 299 298 292 289 285 282 280 276 270 262 258 257 258 259 262 261 249 235
337 318 315 309 303 306 319 321 313 307 304 303 303 303 301 299 300 300 302 301 305 306 307 295 296 299 301 300 290 284 281 279 277 276 272 264 261 258 255 255 257 257 241 225
1 343 328 323 326 327 322 317 314 309 302 299 298 298 298 301 299 290 287 300 308 306 304 300 302 303 303 300 289 283 277 273 270 271 270 266 262 259 256 252 254 247 232 221
30 348 342 342 333 317 309 313 315 313 311 306 302 300 296 289 288 295 297 299 303 305 303 303 304 304 303 294 287 282 277 271 267 266 265 261 256 254 254 253 246 236 224 217
332 319 312 303 295 300 306 311 310 310 313 312 311 308 306 302 296 296 297 299 299 301 301 298 299 299 295 288 283 281 277 277 278 273 265 260 253 249 247 241 234 228 219 211
353 336 329 326 323 315 310 307 304 306 307 306 306 307 307 307 304 303 301 301 301 299 298 297 296 295 292 290 287 283 277 272 269 266 264 259 250 244 237 231 228 216 207 197
Height
1483 1479 1480 1478 1475 1476 1477 1474 1472 1456 1450 1438 1434 1433 1429 1425 1421 1417 1412 1408 1404 1400 1395 1390 1385 1380 1377 1374 1373 1371 1369 1367 1366 1365 1365 1365 1365 1366 1366 1366 1367 1367 1368 1369
1479 1475 1475 1471 1464 1464 1464 1463 1460 1453 1445 1433 1432 1430 1426 1423 1419 1415 1410 1406 1402 1398 1393 1388 1384 1379 1376 1373 1370 1369 1367 1365 1365 1364 1363 1363 1362 1363 1363 1363 1363 1363 1364 1364
1477 1475 1472 1463 1452 1452 1453 1450 1451 1448 1438 1430 1429 1426 1423 1420 1416 1413 1409 1404 1400 1396 1391 1387 1383 1379 1375 1372 1370 1368 1366 1365 1363 1362 1361 1360 1360 1360 1359 1359 1359 1359 1360 1360
1478 1478 1467 1446 1442 1442 1444 1441 1440 1437 1433 1430 1427 1423 1420 1417 1414 1410 1406 1402 1398 1395 1390 1386 1383 1379 1375 1372 1370 1368 1366 1364 1362 1361 1360 1359 1358 1358 1357 1357 1357 1356 1356 1357
1478 1477 1462 1445 1439 1440 1441 1437 1432 1432 1429 1426 1423 1420 1416 1414 1411 1408 1404 1401 1397 1393 1389 1385 1381 1378 1374 1372 1369 1367 1365 1363 1361 1360 1358 1357 1357 1356 1355 1354 1354 1354 1354 1353
1472 1470 1457 1437 1435 1434 1437 1437 1426 1426 1425 1423 1422 1422 1414 1410 1408 1404 1401 1397 1394 1390 1387 1383 1380 1376 1373 1370 1368 1366 1364 1362 1361 1359 1358 1356 1355 1354 1353 1352 1352 1351 1351 1351
1464 1462 1447 1433 1431 1434 1440 1431 1422 1421 1420 1419 1419 1416 1411 1407 1404 1401 1397 1394 1390 1387 1384 1381 1378 1375 1371 1369 1366 1364 1363 1361 1359 1358 1357 1355 1353 1352 1351 1350 1350 1350 1349 1349
1458 1456 1441 1425 1429 1430 1424 1419 1418 1418 1417 1415 1413 1410 1407 1404 1401 1397 1393 1390 1387 1384 1381 1379 1376 1373 1369 1367 1365 1362 1360 1359 1357 1356 1354 1353 1351 1350 1349 1348 1348 1347 1347 1346
1437 1429 1419 1419 1418 1417 1417 1416 1415 1414 1413 1411 1408 1405 1403 1400 1397 1393 1390 1387 1384 1381 1378 1375 1373 1370 1367 1365 1363 1360 1358 1356 1355 1353 1351 1350 1349 1347 1347 1346 1345 1345 1345 1345
1430 1420 1415 1415 1414 1414 1413 1412 1411 1410 1408 1406 1404 1401 1398 1395 1392 1389 1386 1384 1381 1377 1374 1372 1370 1368 1365 1362 1360 1357 1355 1353 1351 1350 1348 1348 1347 1346 1345 1344 1343 1343 1343 1343
1422 1414 1412 1408 1408 1408 1408 1407 1406 1405 1403 1401 1399 1396 1394 1391 1388 1385 1382 1380 1377 1375 1372 1369 1367 1365 1362 1360 1357 1354 1352 1350 1349 1347 1346 1344 1343 1343 1342 1342 1343 1342 1342 1342
1409 1405 1406 1403 1403 1404 1403 1402 1401 1399 1397 1396 1394 1391 1389 1386 1383 1381 1378 1376 1373 1371 1369 1366 1363 1361 1359 1357 1354 1351 1349 1347 1346 1344 1343 1342 1340 1340 1340 1340 1340 1340 1340 1341
1398 1398 1399 1398 1398 1398 1397 1396 1395 1394 1392 1390 1388 1386 1384 1381 1379 1376 1374 1372 1369 1367 1365 1362 1359 1357 1355 1353 1351 1349 1346 1344 1343 1342 1340 1339 1338 1337 1336 1337 1337 1338 1338 1338
1393 1394 1393 1392 1392 1392 1392 1391 1390 1388 1387 1385 1383 1381 1379 1376 1374 1372 1369 1367 1365 1362 1360 1358 1355 1353 1352 1349 1347 1345 1343 1341 1340 1339 1338 1337 1336 1336 1335 1334 1333 1333 1334 1335
1387 1388 1388 1387 1387 1387 1386 1386 1384 1383 1381 1380 1378 1376 1374 1371 1369 1367 1365 1363 1360 1358 1356 1353 1351 1349 1348 1345 1343 1341 1339 1338 1336 1335 1334 1334 1333 1333 1332 1331 1331 1330 1331 1332
1382 1383 1383 1383 1382 1382 1381 1380 1379 1378 1376 1375 1373 1371 1369 1367 1364 1362 1360 1358 1356 1353 1351 1349 1347 1345 1344 1341 1339 1337 1335 1334 1333 1331 1331 1330 1330 1329 1329 1328 1328 1328 1328 1329
1377 1377 1377 1377 1377 1377 1376 1376 1375 1373 1372 1370 1368 1366 1364 1362 1359 1357 1355 1354 1352 1349 1347 1345 1343 1341 1339 1337 1335 1333 1331 1330 1329 1328 1327 1327 1326 1326 1326 1325 1325 1325 1326 1327
1372 1372 1373 1373 1373 1372 1372 1371 1370 1369 1368 1366 1364 1362 1360 1357 1355 1353 1351 1349 1347 1344 1343 1341 1339 1336 1334 1333 1331 1329 1327 1326 1325 1324 1323 1323 1323 1323 1322 1322 1322 1322 1323 1324
1368 1368 1369 1369 1369 1368 1368 1367 1366 1365 1363 1362 1360 1358 1356 1354 1352 1349 1347 1344 1342 1339 1337 1336 1334 1332 1330 1328 1327 1325 1323 1322 1321 1320 1320 1319 1319 1319 1319 1319 1319 1319 1320 1321
1364 1365 1365 1365 1365 1365 1364 1363 1362 1361 1359 1357 1355 1353 1351 1349 1347 1345 1342 1340 1338 1335 1333 1331 1329 1327 1325 1323 1322 1320 1319 1318 1317 1316 1316 1315 1315 1315 1315 1316 1316 1317 1317 1318
1362 1362 1362 1362 1361 1361 1361 1360 1358 1357 1355 1354 1351 1349 1347 1344 1342 1340 1337 1334 1332 1331 1328 1326 1324 1322 1320 1319 1318 1316 1315 1314 1313 1313 1312 1312 1312 1312 1312 1313 1313 1313 1314 1315
1359 1359 1359 1359 1358 1358 1357 1356 1355 1353 1351 1350 1348 1345 1343 1340 1338 1335 1333 1331 1328 1326 1323 1321 1319 1317 1316 1315 1313 1312 1311 1310 1309 1309 1308 1308 1308 1308 1309 1309 1310 1310 1311 1312
1357 1357 1357 1356 1356 1354 1353 1353 1351 1349 1348 1346 1343 1341 1338 1336 1333 1331 1327 1326 1323 1321 1318 1316 1314 1313 1311 1310 1308 1307 1306 1305 1305 1305 1304 1304 1304 1305 1305 1305 1306 1307 1308 1309
1355 1355 1355 1354 1353 1351 1350 1349 1348 1346 1344 1342 1339 1337 1334 1331 1328 1327 1324 1321 1318 1316 1313 1311 1309 1308 1306 1305 1303 1302 1301 1301 1300 1300 1300 1300 1300 1301 1301 1302 1302 1303 1305 1306
1353 1353 1352 1351 1350 1348 1347 1345 1344 1342 1339 1337 1335 1333 1330 1327 1324 1321 1319 1316 1313 1311 1308 1306 1304 1303 1301 1300 1299 1298 1297 1296 1296 1296 1296 1296 1296 1297 1297 1298 1299 1300 1301 1303
1351 1350 1349 1348 1347 1346 1344 1342 1340 1338 1335 1332 1330 1328 1325 1323 1320 1317 1314 1311 1309 1306 1304 1301 1299 1298 1296 1295 1294 1293 1292 1292 1291 1292 1292 1292 1292 1293 1294 1295 1296 1297 1299 1300
1348 1348 1347 1346 1344 1343 1341 1339 1337 1334 1332 1329 1326 1323 1321 1318 1315 1312 1310 1307 1304 1301 1299 1297 1295 1293 1292 1290 1289 1289 1288 1288 1287 1287 1288 1288 1289 1289 1290 1291 1293 1294 1296 1298